Regional Weather Roundup
Issued by NWS

Home | Current Version | Previous Version | Graphics & Text | Print | Product List | Glossary Off
Versions: 1 2 3 4 5 6 7 8 9 10 11 12 13 14 15 16 17 18 19 20 21 22 23 24 25 26 27 28 29 30 31 32 33 34 35 36 37 38 39 40 41 42 43 44 45 46 47 48 49 50

000
ASUS43 KMKX 192000
RWRWI

WISCONSIN REGIONAL WEATHER ROUNDUP
NATIONAL WEATHER SERVICE MILWAUKEE/SULLIVAN WI
300 PM CDT TUE SEP 19 2017

NOTE: "FAIR" INDICATES FEW OR NO CLOUDS BELOW 12,000 FEET WITH NO
SIGNIFICANT WEATHER AND/OR OBSTRUCTIONS TO VISIBILITY.

WIZ001-002-006>008-014>016-023>028-192100-
NORTHWEST WISCONSIN

CITY           SKY/WX    TMP DP  RH WIND       PRES   REMARKS
SUPERIOR ARPT  SUNNY     65  58  76 E15G21    29.86F
ASHLAND        PTSUNNY   71  60  68 NE7       29.89F
HAYWARD        MOSUNNY   75  59  57 SE10G20   29.87F
SIREN          PTSUNNY   75  60  58 SE13G20   29.85F
CUMBERLAND     PTSUNNY   72  59  64 SE15      29.87F
RICE LAKE      CLOUDY    75  60  59 SE14      29.89F
CHETEK         PTSUNNY   75  63  65 SE12G18   29.88F
LADYSMITH      MOSUNNY   77  57  50 SE8       29.92F
EAU CLAIRE     NOT AVBL
MENOMONIE      MOSUNNY   78  63  61 SE14      29.86F
NEW RICHMOND   MOSUNNY   76  61  58 SE9G16    29.84F
OSCEOLA        MOSUNNY   76  61  60 SE14G20   29.85F
$$

WIZ003>005-009-010-017-018-192100-
NORTH CENTRAL WISCONSIN

CITY           SKY/WX    TMP DP  RH WIND       PRES   REMARKS
MANITOWISH WTR PTSUNNY   71  57  61 SE9       29.95F
ARBOR VITAE    MOSUNNY   77  58  52 SE10G17   29.95F
WOODRUFF       MOSUNNY   77  58  52 SE10G17   29.95F
RHINELANDER    CLOUDY    76  56  49 S12G17    29.97F
EAGLE RIVER    SUNNY     73  52  46 SE6G16    29.96F
LAND O LAKES   SUNNY     74  53  47 S7        29.98F
PHILLIPS       PTSUNNY   74  57  56 SE9       29.93F
TOMAHAWK         N/A     75  55  49 SE7       29.96F
MEDFORD        SUNNY     73  53  47 SE9G21    29.93F
MERRILL        NOT AVBL
$$

WIZ029-030-035-036-043>047-192100-
CENTRAL WISCONSIN

CITY           SKY/WX    TMP DP  RH WIND       PRES   REMARKS
WAUSAU         SUNNY     76  54  46 SE13      29.93F
MOSINEE        SUNNY     75  54  46 SE9       29.96F
MARSHFIELD     SUNNY     77  51  40 SE15      29.92F
STEVENS POINT  SUNNY     74  53  47 SE9       29.96S
WAUPACA        SUNNY     80  53  40 SE8       29.96S HX  80
WAUTOMA        SUNNY     79  53  40 E8        29.93F
WISC RAPIDS    SUNNY     80  52  37 S12       29.94F HX  80
CAMP DOUGLAS   NOT AVBL
$$

WIZ011>013-019>022-031-037>040-048>050-192100-
NORTHEAST WISCONSIN

CITY           SKY/WX    TMP DP  RH WIND       PRES   REMARKS
ANTIGO         SUNNY     72  58  61 SE10G16   29.98F
SHAWANO        PTSUNNY   77  62  59 E9        29.97F
OCONTO         MOSUNNY   72  59  64 SE8       29.98F
STURGEON BAY   SUNNY     70  57  63 VRB5      30.00S
GREEN BAY      MOSUNNY   77  61  57 E12       29.96F
MANITOWOC      SUNNY     67  59  75 SE6       29.99F
APPLETON       MOSUNNY   75  57  53 SE12      29.95F
CLINTONVILLE   MOSUNNY   75  59  57 SE7       29.96F
OSHKOSH        SUNNY     74  62  66 E12       29.95F
$$

WIZ032>034-041-042-053>061-192100-
SOUTHWEST WISCONSIN

CITY           SKY/WX    TMP DP  RH WIND       PRES   REMARKS
LA CROSSE      PTSUNNY   80  64  58 SE12      29.87F HX  82
SPARTA         MOSUNNY   79  60  52 SE8       29.90F HX  80
VIROQUA        MOSUNNY   78  63  59 SE9G18    29.92F HX  80
BOSCOBEL       MOSUNNY   81  61  50 S8        29.89F HX  82
PRAIRIE DU CHI MOSUNNY   81  60  48 E10       29.88F HX  81
PLATTEVILLE    PTSUNNY   81  64  55 SE8       29.92F HX  82
$$

WIZ056-057-062-063-064-067-068-192100-
SOUTH CENTRAL WISCONSIN

CITY           SKY/WX    TMP DP  RH WIND       PRES   REMARKS
REEDSBURG      SUNNY     79  58  48 SE9       29.92F HX  80
BARABOO/DELLS  SUNNY     80  51  37 SE10      29.93F
LONE ROCK      NOT AVBL
MINERAL POINT  MOSUNNY   79  64  61 SE8       29.93F HX  81
MADISON        MOSUNNY   80  57  45 S8        29.92F HX  80
MIDDLETON      SUNNY     80  56  42 E8        29.93F HX  80
WATERTOWN      SUNNY     80  59  49 CALM      29.93F HX  81
MONROE         PTSUNNY   79  59  50 SE10G16   29.93F HX  80
JANESVILLE     MOSUNNY   81  63  54 E8        29.92F HX  82
$$

WIZ051-052-058>065-066-070>072-192100-
SOUTHEAST WISCONSIN

CITY           SKY/WX    TMP DP  RH WIND       PRES   REMARKS
MILWAUKEE      PTSUNNY   70  66  87 E8        29.96F FOG
WAUKESHA       SUNNY     73  63  68 E14       29.96F
MILWAUKEE/TIMM CLOUDY    72  59  64 E6        29.97F
RACINE         CLOUDY    70  66  87 E9        29.98S FOG
BURLINGTON     SUNNY     75  65  71 E8        29.94S
KENOSHA        PTSUNNY   76  64  66 E9        29.96S
FOND DU LAC    SUNNY     78  56  46 E6        29.94F
SHEBOYGAN      MOSUNNY   71  62  73 E10       29.97F
WEST BEND        N/A     73  63  68 SE9       29.97S
JUNEAU         SUNNY     77  56  47 SE5       29.95F
$$

LSZ147-162-192100-
LAKE SUPERIOR

STATION/POSITION TIME  TEMP    WIND        PRES    WAVE
                       AIR SEA DIR/SP/G            HT/PER
                 (UTC) (F)     (DEG/KT/KT) (MB)    (FT/S)
W MID LAKE BUOY  1850   56 55   10/  8/ 10 1014.4F   1/ 3
DEVILS ISLAND    1900   59      50/ 13/ 13 1013.7F
SAXON HARBOR     1940   64      10/  2/  5 1012.5F
$$

LMZ867-665-643>646-192100-
LAKE MICHIGAN

STATION/POSITION TIME  TEMP    WIND        PRES    WAVE
                       AIR SEA DIR/SP/G            HT/PER
                 (UTC) (F)     (DEG/KT/KT) (MB)    (FT/S)
S GREEN BAY BUOY 1930   70 68  120/  8/ 10 1015.2F
N MID LAKE BUOY  1850   64 65   90/ 10/ 10 1017.0F   1/ 3
NORTHPORT PIER   1940   66      80/  5/  7 1015.6F
KEWAUNEE LAKESHO 1930   66      60/  3/  5 1015.0F
SHEBOYGAN LAKESH 1900   65      70/  8/  8 1015.1F
PORT WASHINGTON  1940   68      90/  4/  6 1015.6F
ATWATER BUOY     1809   66 68   80/  8/ 10 1015.0
MILWAUKEE LAKESH 1930   66      40/  6/  6   N/A
S MID LAKE BUOY  1850   67 69   60/  6/  8 1014.7F   1/ 4
KENOSHA   LAKESH 1900   70      90/  8/  9 1014.2
$$

TC  - TEMPERATURE IN CELSIUS
VSB - VISIBILITY IN STATUTE MILES
WCI - WIND CHILL INDEX
HX  - HEAT INDEX




USA.gov is the U.S. government's official web portal to all federal, state and local government web resources and services.